Location: White Plains
(41.0340°N, 73.7629°W)
Time: 08:47:32
(UTC-04:00)

Envisat - Visible Passes

Search period start: 14 October 2019 00:00
Search period end: 24 October 2019 00:00
Orbit: 764 x 766 km, 98.1° (Epoch: 14 October)

Date Brightness Start Highest point End Pass type
(mag) Time Alt. Az. Time Alt. Az. Time Alt. Az.
14 Oct 3.0 18:53:27 10° SSE 18:58:31 78° ENE 19:03:37 10° N visible
14 Oct 6.2 20:36:21 10° WSW 20:38:06 12° W 20:39:52 10° WNW visible
15 Oct 5.2 19:56:43 10° SSW 20:00:58 27° W 20:05:14 10° NW visible
16 Oct 6.6 06:28:19 10° ENE 06:30:11 12° E 06:32:02 10° ESE visible
16 Oct 3.6 19:19:02 10° S 19:24:01 60° W 19:29:04 10° NNW visible
17 Oct 3.0 18:42:17 10° SSE 18:47:17 62° ENE 18:52:18 10° N visible
17 Oct 6.0 20:23:49 10° SW 20:26:43 15° W 20:29:37 10° NW visible
18 Oct 4.7 19:45:04 10° SSW 19:49:38 34° W 19:54:14 10° NNW visible
19 Oct 3.2 19:07:41 10° S 19:12:45 76° WSW 19:17:51 10° NNW visible
20 Oct 3.2 18:31:12 10° SE 18:36:04 49° ENE 18:40:57 10° N visible
20 Oct 5.7 20:11:44 10° SW 20:15:19 19° W 20:18:57 10° NW visible
21 Oct 6.2 06:41:19 10° NE 06:44:36 17° E 06:47:50 10° SE visible
21 Oct 4.3 19:33:31 10° S 19:38:19 43° W 19:43:09 10° NNW visible
22 Oct 3.0 18:56:25 10° SSE 19:01:29 85° ENE 19:06:35 10° NNW visible
22 Oct 6.3 20:40:14 10° W 20:41:08 10° W 20:42:02 10° WNW visible
23 Oct 5.3 19:59:53 10° SSW 20:03:58 24° W 20:08:06 10° NW visible
